Preview of NWS' New Version of Forecast
This preview is not operational and should not be used for support decisions.
Latest weather observations around

Clayton Lake (K40B)

Using English Units (Switch to International System of Units)
Date/ Time (EST) Wind (mph) Vis. (mi) Weather Sky Cond. Temp (°F) Rel. Humidity Wind Chill (°F) Heat Index (°F) Pressure Precip. (in)
Air Dwpt 6 hour Altimeter (inHg) Sea level (inHg) 1 hr 3 hr 6 hr
Max Min
Jan 16 17:16 WSW 9   Clear   25 22     90% 15     29.72 0    
Jan 16 16:16 SSW 11   Clear   27 23     83% 17     29.67 0 0  
Jan 16 15:16 SSW 14   Clear   27 22     80% 16     29.67 0    
Jan 16 14:16 SSW 13   Clear   27 23     83% 17     29.68 0    
Jan 16 13:16 SSW 15   Clear   27 22     80% 16     29.68     0
Jan 16 12:16 S 13   Clear   26 22     85% 15     29.7 0    
Jan 16 11:16 S 10   Clear   24 21     86% 14     29.74 0    
Jan 16 10:16 SSE 10   Clear   23 19     87% 12     29.78 0 0  
Jan 16 09:16 S 13   Clear   20 17     87% 8            
Jan 16 08:16 SSE 10   Clear   19 16     88% 7     29.83      
Jan 16 07:16 SSE 9   Clear   17 14     88% 6     29.86 0   0
Jan 16 06:16 S 11   Clear   16 13     88% 3     29.88      
Jan 16 05:16 SSE 9   Clear   15 12     89% 3     29.91 0    
Jan 16 04:16 Calm   Clear   14 11     89%       29.93 0 0  
Jan 16 03:16 Calm   Clear   10 7     87%       29.97 0    
Jan 16 02:16 2   Clear   10 7     89%       30 0    
Jan 16 01:16 Calm   Clear   5 1     86%       30.02 0   0
Jan 16 00:16 Calm   Clear   -1 -5     83%       30.03 0    
Jan 15 23:16 Calm   Clear   0 -4     85%       30.06 0    
Jan 15 22:16 Calm   Clear   -7 -11     81%       30.06 0 0  
Jan 15 21:16 3   Clear   -5 -9     83% -13     30.06 0    
Jan 15 20:16 Calm   Clear   1 -2     87%       30.06 0    
Jan 15 19:16 Calm   Clear   -1 -4     86%       30.07 0   1
Jan 15 18:16 Calm   Clear   4 1     87%       30.06 0    
Jan 15 17:16 Calm   Clear   9 7     89%       30.06 0    
Jan 15 16:16 Calm   Clear   15 10     82%       30.04 0 1  
Jan 15 15:16 2   Clear   20 12     73%       30.04 0    
Jan 15 14:16 3   Clear   21 11     63% 17     30.04 1    
Jan 15 13:16 3   Clear   20 10     64% 15     30.04 0   1
Jan 15 12:16 Calm   Clear   19 10     67%       30.06 0    
Jan 15 11:16 Calm   Clear   17 10     72%       30.09      
Jan 15 10:16 5   Clear   14 8     74% 7     30.11 0 0  
Jan 15 09:16 2   Clear   8 5     86%       30.11 0    
Jan 15 08:16 Calm   Clear   5 2     88%       30.1 0    
Jan 15 07:16 Calm   Clear   5 2     88%       30.08 0   0
Jan 15 06:16 Calm   Clear   9 6     84%       30.07 0    
Jan 15 05:16 Calm   Clear   11 6     82%       30.06 0    
Jan 15 04:16 Calm   Clear   11 7     81%       30.06      
Jan 15 03:16 2   Clear   11 6     80%       30.06      
Jan 15 02:16 2   Clear   11 6     80%       30.06      
Jan 15 01:16 3   Clear   10 5     78% 4     30.06     0
Jan 15 00:16 Calm   Clear   7 3     85%       30.08 0    
Jan 14 23:16 Calm   Clear   5 2     88%       30.09 0    
Jan 14 22:16 Calm   Clear   5 2     87%       30.11 0 0  
Jan 14 21:16 Calm   Clear   7 3     83%       30.11 0    
Jan 14 20:16 2   Clear   11 6     80%       30.12 0    
Jan 14 19:16 Calm   Clear   10 4     79%       30.14 0   0
Jan 14 18:16 3   Clear   10 6     83% 4     30.17 0    
Jan 14 17:16 Calm   Clear   8 4     86%       30.18 0    
Jan 14 16:16 Calm   Clear   11 5     74%       30.21 0 0  
Jan 14 15:16 3   Clear   17 7     66% 11     30.23 0    
Jan 14 14:16 3   Clear   19 7     59% 14     30.25 0    
Jan 14 13:16 3   Clear   18 6     61% 13     30.27 0   1
Jan 14 12:16 3   Clear   15 5     65% 9     30.3 0    
Jan 14 11:16 Calm   Clear   9 0     65%       30.35 0    
Jan 14 10:16 Calm   Clear   2 -2     82%       30.39 0 0  
Jan 14 09:16 Calm   Clear   -14 -19     77%         0    
Jan 14 08:16 Calm   Clear   -19 -25     73%       30.41      
Jan 14 07:16 Calm   Clear   -21        %       30.41 0   0
Jan 14 06:16 Calm   Clear   -19 -24     76%       30.41 0    
Jan 14 05:16 Calm   Clear   -19 -25     75%       30.41      
Jan 14 04:16 Calm   Clear   -19 -25     75%       30.42 0 0  
Notice The following observation data may not be complete
Jan 14 03:16 Calm   Clear     -24      %       30.43 0    
Jan 14 02:16 Calm   Clear   -20        %       30.44 0    
Jan 14 01:16 Calm   Clear   -16 -21     76%       30.43     0
Jan 14 00:16 Calm   Clear   -15 -20     78%       30.44 0    
Jan 13 23:16 Calm   Clear   -15 -19     78%       30.45 0    
Jan 13 22:16 Calm   Clear   -13 -17     82%       30.46   0  
Jan 13 21:16 Calm   Clear   -12 -16     82%       30.45 0    
Jan 13 20:16 Calm   Clear   -6 -10     85%       30.46 0    
Jan 13 19:16 Calm   Clear   -4 -7     86%       30.47 0   0
Jan 13 18:16 3   Clear   3 -1     85% -5     30.47 0    
May 15 06:16 WSW 7   Clear   57 41     55%       29.72      
May 14 20:16 Calm   Clear   60 41     50%       29.71      
May 14 15:16 WSW 14   Clear   74 35     24%   72   29.71      
May 14 12:16 SSW 11   Clear   69 35     29%       29.76      
May 13 21:16 S 9   Clear   53 31     44%       29.9      
May 13 19:16 3   Clear   63 24     23%       29.9      
May 13 14:16 SSW 13   Clear   64 25     22%       30.06      
May 12 17:16 5   Clear   56 16     20%       30.03      
May 12 00:16 Calm   Clear   28 22     77%       30.15      
May 11 23:16 Calm   Clear   29 22     74%       30.14      
May 11 10:16 6   Clear   36 20     52% 31     29.94      
Jun 12 02:16 Calm   Clear   57 52     83%       29.86      
Jun 11 23:16 Calm   Clear   64 56     75%       29.8      
Jun 11 18:16 WSW 8   Clear   85 54     35%   84   29.63      
Jun 11 16:16 SW 8   Clear   86 54     34%   84   29.61      
Jun 11 15:16 SW 11   Clear   86 54     34%   84   29.59      
Jun 10 20:17 Calm   Clear   62 47     58%       29.84      
Jun 10 10:16 SSW 9   Clear   59 36     42%       29.92      
Jun 09 17:16 3   Clear   63 57     79%       29.46      
Jun 08 03:16 3   Clear   58 50     75%       29.88      
Jun 08 01:16 3   Clear   56 49     78%       29.88